Hourly Data Report for October 03, 2014

All times are specified in Local Standard Time (LST). Add 1 hour to adjust for Daylight Saving Time where and when it is observed.

RANKIN INLET A
NUNAVUT

62°48'38.000" N
92°06'53.000" W
32.30 m
2303405
71083
YRT

Download Data

Hourly Data (October 2014)
Hourly Data Report for October 3, 2014
Temp Definition
°C
Dew Point Temp Definition
°C
Rel Hum Definition
%
Wind Dir Definition
10's deg

Wind Spd Definition
km/h
Visibility Definition
km
Stn Press Definition
kPa
Hmdx Definition


Wind Chill Definition


Weather Definition


TIME
00:00 Legend Double Dagger -3.0 -4.9 87 2 52 0.4 99.86   -12 Snow,Blowing Snow
01:00 Legend Double Dagger -3.1 -4.7 89 1 54 0.4 99.92   -13 Snow,Blowing Snow
02:00 Legend Double Dagger -3.2 -4.9 88 2 44 0.4 100.01   -12 Snow,Blowing Snow
03:00 Legend Double Dagger -3.5 -5.7 85 2 43 0.4 100.13   -12 Snow,Blowing Snow
04:00 Legend Double Dagger -3.5 -6.0 83 2 42 1.2 100.23   -12 Snow,Blowing Snow
05:00 Legend Double Dagger -3.7 -5.9 85 3 37 9.7 100.29   -12 Snow
06:00 Legend Double Dagger -3.7 -5.9 85 3 38 12.9 100.36   -12 Snow
07:00 Legend Double Dagger -3.7 -5.7 86 2 30 16.1 100.46   -11 Snow
08:00 Legend Double Dagger -3.7 -5.7 86 2 35 19.3 100.51   -12 Snow
09:00 Legend Double Dagger -3.7 -5.7 86 2 36 24.1 100.60   -12 Snow
10:00 Legend Double Dagger -3.6 -5.8 85 1 33 24.1 100.64   -12 Snow
11:00 Legend Double Dagger -3.4 -5.6 85 1 32 24.1 100.73   -11 Snow
12:00 Legend Double Dagger -3.0 -5.3 84 1 35 24.1 100.77   -11 Snow
13:00 Legend Double Dagger -2.8 -5.1 84 1 33 24.1 100.80   -10 Snow
14:00 Legend Double Dagger -2.9 -5.2 84 36 34 24.1 100.85   -11 Snow
15:00 Legend Double Dagger -2.6 -5.3 82 1 28 24.1 100.91   -10 Snow
16:00 Legend Double Dagger -2.7 -5.4 82 36 30 24.1 100.99   -10 Snow
17:00 Legend Double Dagger -2.8 -5.6 81 1 26 24.1 101.05   -10 LegendNANA
18:00 Legend Double Dagger -2.9 -5.6 82 1 26 24.1 101.09   -10 Cloudy
19:00 Legend Double Dagger -2.8 -5.3 83 36 21 24.1 101.09   -9 LegendNANA
20:00 Legend Double Dagger -2.7 -5.0 84 36 25 24.1 101.06   -9 LegendNANA
21:00 Legend Double Dagger -2.7 -4.9 85 1 28 24.1 101.02   -10 Cloudy
22:00 Legend Double Dagger -2.5 -5.0 83 36 26 24.1 101.01   -9 LegendNANA
23:00 Legend Double Dagger -2.4 -4.9 83 1 28 24.1 101.00   -9 LegendNANA

Notes on Data Quality.

Legend

  • E = Estimated
  • M = Missing
  • NA = Not Available
  • ‡ = Partner data that is not subject to review by the National Climate Archives
Date modified: